| time (UTC) | temp F | wind direction | speed MPH | gust MPH | rain 1hr in | rain 24hr in | rain mn in | humidity % | barometer mb |
| 20260831132202 | 66 | 359 | 1.0 | 4.0 | 0.05 | 0.46 | 0.41 | 95 | 1017.7 |
| 20260831131204 | 66 | 360 | 0.0 | 2.0 | 0.03 | 0.44 | 0.39 | 95 | 1017.6 |
| 20260831130202 | 66 | 359 | 0.0 | 1.0 | 0.00 | 0.41 | 0.36 | 95 | 1017.7 |
| 20260831125202 | 66 | 359 | 0.0 | 4.0 | 0.19 | 0.40 | 0.35 | 95 | 1017.5 |
| 20260831124202 | 66 | 1 | 1.0 | 2.0 | 0.18 | 0.39 | 0.34 | 95 | 1017.5 |
| 20260831123202 | 66 | 359 | 1.0 | 2.0 | 0.13 | 0.34 | 0.29 | 95 | 1017.5 |
| 20260831122202 | 66 | 359 | 0.0 | 1.0 | 0.09 | 0.30 | 0.25 | 95 | 1017.3 |
| 20260831121204 | 66 | 360 | 0.0 | 0.0 | 0.03 | 0.24 | 0.19 | 95 | 1017.5 |
| 20260831120202 | 66 | 360 | 0.0 | 1.0 | 0.00 | 0.21 | 0.16 | 95 | 1017.3 |
| 20260831115202 | 66 | 360 | 0.0 | 0.0 | 0.01 | 0.21 | 0.16 | 95 | 1017.3 |
| 20260831114223 | 66 | 360 | 0.0 | 0.0 | 0.01 | 0.21 | 0.16 | 95 | 1017.4 |
| 20260831113203 | 66 | 360 | 0.0 | 0.0 | 0.01 | 0.21 | 0.16 | 95 | 1017.4 |
| 20260831112203 | 66 | 360 | 0.0 | 0.0 | 0.00 | 0.20 | 0.15 | 95 | 1017.4 |
| 20260831111203 | 66 | 360 | 0.0 | 0.0 | 0.00 | 0.20 | 0.15 | 95 | 1017.5 |
| 20260831110202 | 66 | 360 | 0.0 | 0.0 | 0.00 | 0.20 | 0.15 | 95 | 1017.6 |
| 20260831105202 | 66 | 360 | 0.0 | 0.0 | 0.03 | 0.19 | 0.14 | 95 | 1017.6 |
| 20260831104224 | 66 | 360 | 0.0 | 0.0 | 0.02 | 0.18 | 0.13 | 95 | 1017.7 |
| 20260831103203 | 66 | 360 | 0.0 | 0.0 | 0.02 | 0.18 | 0.13 | 95 | 1017.7 |
| 20260831102205 | 66 | 360 | 0.0 | 0.0 | 0.01 | 0.17 | 0.12 | 95 | 1017.7 |
| 20260831101225 | 66 | 360 | 0.0 | 0.0 | 0.01 | 0.17 | 0.12 | 95 | 1017.8 |
| 20260831100202 | 66 | 360 | 0.0 | 1.0 | 0.00 | 0.16 | 0.11 | 95 | 1017.8 |
| 20260831095203 | 66 | 360 | 0.0 | 0.0 | 0.00 | 0.16 | 0.11 | 95 | 1017.7 |
| 20260831094202 | 66 | 360 | 0.0 | 0.0 | 0.00 | 0.16 | 0.11 | 95 | 1017.6 |
| 20260831093202 | 66 | 360 | 0.0 | 0.0 | 0.00 | 0.16 | 0.11 | 95 | 1017.5 |
| 20260831092223 | 66 | 360 | 0.0 | 0.0 | 0.00 | 0.16 | 0.11 | 95 | 1017.4 |
| 20260831091202 | 66 | 360 | 0.0 | 0.0 | 0.00 | 0.16 | 0.11 | 95 | 1017.5 |
| 20260831090202 | 67 | 360 | 0.0 | 0.0 | 0.00 | 0.16 | 0.11 | 95 | 1017.7 |
| 20260831085202 | 67 | 360 | 0.0 | 0.0 | 0.00 | 0.16 | 0.11 | 95 | 1017.8 |
| 20260831084203 | 67 | 360 | 0.0 | 0.0 | 0.00 | 0.16 | 0.11 | 95 | 1017.9 |
| 20260831083202 | 67 | 360 | 0.0 | 0.0 | 0.00 | 0.16 | 0.11 | 95 | 1017.8 |
| 20260831082203 | 67 | 360 | 0.0 | 0.0 | 0.00 | 0.16 | 0.11 | 95 | 1018.2 |
| 20260831081203 | 67 | 360 | 0.0 | 0.0 | 0.00 | 0.16 | 0.11 | 95 | 1018.2 |
| 20260831080204 | 67 | 360 | 0.0 | 0.0 | 0.00 | 0.16 | 0.11 | 95 | 1018.1 |
| 20260831075202 | 67 | 360 | 0.0 | 0.0 | 0.01 | 0.16 | 0.11 | 95 | 1018.2 |
| 20260831074202 | 67 | 360 | 0.0 | 0.0 | 0.01 | 0.16 | 0.11 | 95 | 1018.2 |
| 20260831073202 | 67 | 360 | 0.0 | 0.0 | 0.00 | 0.15 | 0.10 | 95 | 1018.3 |
| 20260831072202 | 67 | 360 | 0.0 | 0.0 | 0.00 | 0.15 | 0.10 | 95 | 1018.4 |
| 20260831071203 | 67 | 360 | 0.0 | 0.0 | 0.00 | 0.15 | 0.10 | 95 | 1018.4 |
| 20260831070204 | 67 | 360 | 0.0 | 0.0 | 0.00 | 0.15 | 0.10 | 95 | 1018.4 |
| 20260831065224 | 67 | 360 | 0.0 | 0.0 | 0.06 | 0.14 | 0.09 | 94 | 1018.5 |
| 20260831064203 | 67 | 360 | 0.0 | 0.0 | 0.04 | 0.12 | 0.07 | 94 | 1018.5 |
| 20260831063203 | 67 | 360 | 0.0 | 0.0 | 0.02 | 0.10 | 0.05 | 95 | 1018.6 |
| 20260831062203 | 67 | 360 | 0.0 | 0.0 | 0.02 | 0.10 | 0.05 | 95 | 1018.6 |
| 20260831061202 | 67 | 360 | 0.0 | 0.0 | 0.01 | 0.09 | 0.04 | 95 | 1018.8 |
| 20260831060202 | 67 | 360 | 0.0 | 0.0 | 0.00 | 0.08 | 0.03 | 94 | 1018.9 |
| 20260831055203 | 67 | 360 | 0.0 | 0.0 | 0.00 | 0.07 | 0.02 | 94 | 1018.9 |
| 20260831054202 | 67 | 360 | 0.0 | 0.0 | 0.00 | 0.07 | 0.02 | 94 | 1018.9 |
| 20260831053203 | 67 | 360 | 0.0 | 0.0 | 0.00 | 0.07 | 0.02 | 94 | 1018.7 |
| 20260831052203 | 67 | 360 | 0.0 | 0.0 | 0.00 | 0.07 | 0.02 | 94 | 1018.7 |
| 20260831051202 | 67 | 360 | 0.0 | 0.0 | 0.00 | 0.07 | 0.02 | 94 | 1018.8 |
| 20260831050204 | 67 | 360 | 0.0 | 0.0 | 0.00 | 0.07 | 0.02 | 94 | 1018.8 |
| 20260831045202 | 67 | 360 | 0.0 | 0.0 | 0.02 | 0.07 | 0.02 | 94 | 1018.7 |
| 20260831044203 | 67 | 360 | 0.0 | 0.0 | 0.02 | 0.07 | 0.02 | 94 | 1018.8 |
| 20260831043202 | 67 | 360 | 0.0 | 0.0 | 0.02 | 0.07 | 0.02 | 94 | 1018.9 |
| 20260831042203 | 67 | 360 | 0.0 | 0.0 | 0.01 | 0.06 | 0.01 | 94 | 1018.7 |
| 20260831041202 | 66 | 360 | 0.0 | 0.0 | 0.00 | 0.05 | 0.00 | 94 | 1018.8 |
| 20260831040203 | 66 | 360 | 0.0 | 0.0 | 0.00 | 0.05 | 0.00 | 94 | 1018.9 |
| 20260831035202 | 66 | 360 | 0.0 | 0.0 | 0.00 | 0.05 | 0.05 | 94 | 1018.9 |
| 20260831034203 | 66 | 360 | 0.0 | 0.0 | 0.00 | 0.05 | 0.05 | 94 | 1018.9 |
| 20260831033223 | 66 | 360 | 0.0 | 0.0 | 0.00 | 0.05 | 0.05 | 94 | 1018.9 |
| 20260831031203 | 66 | 360 | 0.0 | 0.0 | 0.00 | 0.05 | 0.05 | 94 | 1018.9 |
| 20260831030203 | 66 | 359 | 0.0 | 1.0 | 0.00 | 0.05 | 0.05 | 94 | 1019.0 |
| 20260831025202 | 66 | 360 | 0.0 | 0.0 | 0.00 | 0.05 | 0.05 | 94 | 1019.1 |
| 20260831024224 | 65 | 360 | 0.0 | 0.0 | 0.00 | 0.05 | 0.05 | 94 | 1019.3 |
| 20260831023202 | 65 | 360 | 0.0 | 0.0 | 0.00 | 0.05 | 0.05 | 94 | 1019.0 |
| 20260831022204 | 65 | 360 | 0.0 | 0.0 | 0.00 | 0.05 | 0.05 | 93 | 1019.0 |
| 20260831021224 | 65 | 360 | 0.0 | 0.0 | 0.00 | 0.05 | 0.05 | 93 | 1019.0 |
| 20260831020203 | 65 | 360 | 0.0 | 0.0 | 0.00 | 0.05 | 0.05 | 93 | 1019.1 |
| 20260831015203 | 65 | 360 | 0.0 | 1.0 | 0.00 | 0.05 | 0.05 | 93 | 1019.1 |
| 20260831014202 | 65 | 360 | 0.0 | 0.0 | 0.00 | 0.05 | 0.05 | 93 | 1019.2 |
| 20260831013202 | 65 | 360 | 0.0 | 0.0 | 0.00 | 0.05 | 0.05 | 93 | 1019.1 |
| 20260831012227 | 65 | 360 | 0.0 | 0.0 | 0.00 | 0.05 | 0.05 | 93 | 1019.2 |
| 20260831011202 | 65 | 360 | 0.0 | 0.0 | 0.00 | 0.05 | 0.05 | 93 | 1019.1 |
| 20260831010225 | 65 | 360 | 0.0 | 0.0 | 0.00 | 0.05 | 0.05 | 93 | 1019.1 |
| 20260831005202 | 65 | 360 | 0.0 | 0.0 | 0.00 | 0.05 | 0.05 | 93 | 1019.0 |
| 20260831004223 | 65 | 360 | 0.0 | 0.0 | 0.00 | 0.05 | 0.05 | 93 | 1018.8 |
| 20260831003203 | 65 | 360 | 0.0 | 0.0 | 0.00 | 0.05 | 0.05 | 93 | 1018.7 |
| 20260831002202 | 65 | 360 | 0.0 | 0.0 | 0.00 | 0.05 | 0.05 | 93 | 1018.6 |
| 20260831001224 | 65 | 360 | 0.0 | 0.0 | 0.00 | 0.05 | 0.05 | 92 | 1018.5 |
| 20260831000204 | 66 | 360 | 0.0 | 0.0 | 0.00 | 0.05 | 0.05 | 92 | 1018.5 |
| 20260830235223 | 66 | 360 | 0.0 | 0.0 | 0.01 | 0.05 | 0.05 | 92 | 1018.6 |
| 20260830234203 | 66 | 360 | 0.0 | 0.0 | 0.01 | 0.05 | 0.05 | 92 | 1018.5 |
| 20260830233202 | 66 | 360 | 0.0 | 0.0 | 0.01 | 0.05 | 0.05 | 92 | 1018.5 |
| 20260830232203 | 66 | 360 | 0.0 | 1.0 | 0.00 | 0.04 | 0.04 | 91 | 1018.4 |
| 20260830231205 | 66 | 360 | 0.0 | 0.0 | 0.00 | 0.04 | 0.04 | 91 | 1018.4 |
| 20260830225202 | 66 | 360 | 0.0 | 0.0 | 0.02 | 0.04 | 0.04 | 90 | 1018.5 |
| 20260830224204 | 66 | 360 | 0.0 | 0.0 | 0.01 | 0.03 | 0.03 | 90 | 1018.6 |
| 20260830223224 | 66 | 360 | 0.0 | 2.0 | 0.01 | 0.03 | 0.03 | 90 | 1018.6 |
| 20260830222203 | 66 | 360 | 0.0 | 2.0 | 0.01 | 0.03 | 0.03 | 90 | 1018.6 |
| 20260830221202 | 66 | 360 | 0.0 | 1.0 | 0.00 | 0.02 | 0.02 | 90 | 1018.6 |
| 20260830220202 | 66 | 360 | 0.0 | 1.0 | 0.00 | 0.02 | 0.02 | 90 | 1018.6 |
| 20260830215204 | 66 | 359 | 0.0 | 2.0 | 0.00 | 0.02 | 0.02 | 90 | 1018.6 |
| 20260830214202 | 66 | 360 | 0.0 | 2.0 | 0.00 | 0.02 | 0.02 | 90 | 1018.4 |
| 20260830213203 | 66 | 359 | 1.0 | 4.0 | 0.00 | 0.02 | 0.02 | 90 | 1018.4 |
| 20260830212203 | 66 | 360 | 0.0 | 0.0 | 0.00 | 0.02 | 0.02 | 90 | 1018.4 |
| 20260830211202 | 66 | 360 | 0.0 | 0.0 | 0.00 | 0.02 | 0.02 | 89 | 1018.4 |
| 20260830210203 | 66 | 360 | 0.0 | 0.0 | 0.00 | 0.02 | 0.02 | 89 | 1018.5 |
| 20260830205202 | 66 | 360 | 0.0 | 0.0 | 0.00 | 0.02 | 0.02 | 89 | 1018.5 |
| 20260830204204 | 66 | 360 | 0.0 | 2.0 | 0.00 | 0.02 | 0.02 | 89 | 1018.6 |
| 20260830203202 | 66 | 360 | 0.0 | 3.0 | 0.00 | 0.02 | 0.02 | 89 | 1018.7 |
| 20260830202202 | 66 | 359 | 0.0 | 2.0 | 0.00 | 0.02 | 0.02 | 89 | 1018.7 |
| 20260830201224 | 66 | 359 | 0.0 | 3.0 | 0.00 | 0.02 | 0.02 | 89 | 1018.7 |
| 20260830200203 | 66 | 357 | 1.0 | 4.0 | 0.00 | 0.02 | 0.02 | 90 | 1018.8 |
| 20260830195204 | 67 | 359 | 1.0 | 6.0 | 0.01 | 0.02 | 0.02 | 90 | 1018.9 |
| 20260830194202 | 67 | 359 | 2.0 | 5.0 | 0.01 | 0.02 | 0.02 | 90 | 1018.8 |
| 20260830193204 | 67 | 359 | 0.0 | 8.0 | 0.01 | 0.02 | 0.02 | 90 | 1019.0 |
| 20260830192202 | 67 | 359 | 2.0 | 9.0 | 0.01 | 0.02 | 0.02 | 90 | 1019.1 |
| 20260830191203 | 67 | 359 | 5.0 | 9.0 | 0.01 | 0.02 | 0.02 | 90 | 1018.9 |
| 20260830190203 | 67 | 359 | 4.0 | 11.0 | 0.00 | 0.01 | 0.01 | 90 | 1018.9 |
| 20260830185202 | 67 | 359 | 2.0 | 8.0 | 0.00 | 0.01 | 0.01 | 90 | 1018.9 |
| 20260830184203 | 67 | 359 | 2.0 | 11.0 | 0.00 | 0.01 | 0.01 | 89 | 1019.1 |
| 20260830183204 | 68 | 359 | 4.0 | 14.0 | 0.00 | 0.01 | 0.01 | 89 | 1019.2 |
| 20260830182204 | 68 | 359 | 3.0 | 13.0 | 0.00 | 0.01 | 0.01 | 89 | 1019.5 |
| 20260830181202 | 69 | 359 | 6.0 | 12.0 | 0.00 | 0.01 | 0.01 | 90 | 1019.5 |
| 20260830180204 | 69 | 359 | 0.0 | 5.0 | 0.00 | 0.01 | 0.01 | 90 | 1019.3 |
| 20260830175202 | 69 | 359 | 0.0 | 2.0 | 0.00 | 0.01 | 0.01 | 90 | 1019.3 |
| 20260830174223 | 69 | 360 | 0.0 | 1.0 | 0.00 | 0.01 | 0.01 | 90 | 1019.2 |
| 20260830173203 | 69 | 360 | 0.0 | 0.0 | 0.00 | 0.01 | 0.01 | 90 | 1019.1 |
| 20260830172202 | 69 | 360 | 0.0 | 3.0 | 0.00 | 0.01 | 0.01 | 90 | 1019.1 |
| 20260830171224 | 69 | 359 | 0.0 | 1.0 | 0.00 | 0.01 | 0.01 | 90 | 1019.0 |
| 20260830170202 | 69 | 359 | 0.0 | 1.0 | 0.00 | 0.01 | 0.01 | 90 | 1019.0 |
| 20260830165226 | 69 | 360 | 0.0 | 1.0 | 0.00 | 0.01 | 0.01 | 90 | 1019.1 |
| 20260830164203 | 69 | 360 | 0.0 | 1.0 | 0.00 | 0.01 | 0.01 | 90 | 1019.1 |
| 20260830163223 | 68 | 360 | 0.0 | 2.0 | 0.00 | 0.01 | 0.01 | 91 | 1019.1 |
| 20260830162223 | 68 | 360 | 0.0 | 0.0 | 0.00 | 0.01 | 0.01 | 90 | 1019.0 |
| 20260830161203 | 68 | 360 | 0.0 | 0.0 | 0.00 | 0.01 | 0.01 | 90 | 1019.2 |
| 20260830160202 | 68 | 360 | 0.0 | 0.0 | 0.00 | 0.01 | 0.01 | 90 | 1019.3 |
| 20260830155225 | 68 | 360 | 0.0 | 0.0 | 0.01 | 0.01 | 0.01 | 89 | 1019.4 |
| 20260830154203 | 68 | 359 | 0.0 | 2.0 | 0.01 | 0.01 | 0.01 | 89 | 1019.6 |
| 20260830153202 | 68 | 360 | 0.0 | 4.0 | 0.01 | 0.01 | 0.01 | 88 | 1019.6 |
| 20260830152203 | 68 | 357 | 3.0 | 5.0 | 0.00 | 0.00 | 0.00 | 88 | 1019.7 |
| 20260830151224 | 69 | 359 | 3.0 | 6.0 | 0.00 | 0.00 | 0.00 | 87 | 1019.7 |
| 20260830150202 | 69 | 348 | 1.0 | 9.0 | 0.00 | 0.00 | 0.00 | 86 | 1019.4 |
| 20260830145203 | 69 | 359 | 3.0 | 6.0 | 0.00 | 0.00 | 0.00 | 86 | 1019.2 |
| 20260830144202 | 68 | 351 | 2.0 | 4.0 | 0.00 | 0.00 | 0.00 | 87 | 1019.1 |
| 20260830143202 | 68 | 359 | 2.0 | 4.0 | 0.00 | 0.00 | 0.00 | 87 | 1019.0 |
| 20260830142203 | 68 | 360 | 0.0 | 0.0 | 0.00 | 0.00 | 0.00 | 86 | 1018.8 |
| 20260830141202 | 67 | 360 | 0.0 | 0.0 | 0.00 | 0.00 | 0.00 | 86 | 1018.8 |
| 20260830135245 | 67 | 360 | 0.0 | 0.0 | 0.00 | 0.00 | 0.00 | 86 | 1018.7 |
| 20260830133204 | 67 | 360 | 0.0 | 0.0 | 0.00 | 0.00 | 0.00 | 85 | 1018.6 |